TITAN 3A TRANSTAGE R/B, 1359

Orbit data source: Space-Track

TITAN 3A TRANSTAGE R/B, 1359 is space debris in LEO originally from a launch on Thu, 06 May 1965 UTC via a TITAN IIIA launch vehicle from the Air Force Eastern Test Range (AFETR). Debris objects in space refer to the collection of defunct objects orbiting the Earth. Examples of debris include non-operational satellites, rocket bodies, and fragments generated from explosions, collisions, or faulty payload assembly.

Loading next visibility...
Identifier
1359, 1965-034A
Orbit
LEO
Country
Flag of USUS
Related business
Manufacturer
Martin Marietta
Mission
Spacecraft
Bus & Motor
Unknown
Mass
2,302 kg wet, 124 kg dry
Launch date (UTC)
1965-05-06 (61 years ago)
Launch vehicle
TITAN IIIA
Launch site
Air Force Eastern Test Range (AFETR)
Object type
Payload
Rocket body
Debris
Shape & HBR
IRR, 1.1 m
Radar Cross Section
Large (>1 m²)

Expand to show TLE details & history
Last TLE update: 13 hours ago

TLE from 13 hours ago
0 TITAN 3A TRANSTAGE R/B
1 01359U 65034A   26264.38119630  .00000004  00000-0 -84510-3 0  9993
2 01359  32.1278  58.8163 0495954 323.1710  33.5657  9.17132442 57483
Epoch: 2026-09-21T09:08Z
TLE epoch observation values (Epoch: 2026-09-21T09:08:55.360Z)
Latitude
-0.00005°
Longitude
-78.67629°
Altitude
2,871.055 km
Speed
6.698 km/s
True Right ascension
03h 55m 15s
True Declination
0° 00' 00"
Sunlit
Object was in daylight at epoch
Visualization orbit readout
Latitude
Unknown
Longitude
Unknown
Altitude
Unknown
Speed
Unknown
Apparent Right ascension
Unknown
Apparent Declination
Unknown
Sunlit
N/A
Visualization observer readout
Local Sidereal Time
15:11:28
Azimuth
Unknown
Elevation
Unknown
Doppler factor
Unknown
Orbital elements
Apogee altitude
3,743.597 km
Perigee altitude
2,787.054 km
Semi-major axis
9,643.463 km
Eccentricity
0.0496
Inclination
32.1278°
RAAN
58.8163°
Arg. of periapsis
323.171°
True anomaly
36.87681°
Mean anomaly
33.5657°
Eccentric anomaly
35.20385°
Mean motion
2.29189 °/min
Orbital period
157.08 mins
BSTAR
-0.0008451
Loading maneuver chart data...
Computing Atmospheric mass density...
Loading historical data...
Loading historical data...
Loading historical data...
Loading historical data...
Loading historical data...
Loading historical data...
Loading historical data...
Other satellites on launch #34 in the year 1965 (1965-05-06 UTC)

Documentation

Showing up to 5 results
|